When you browse on this site, cookies collect data to enhance your experience and personalize the content and advertising you see.
Visit our Privacy Policy to learn more. By continuing to use the site, you agree to this use of cookies and data.
  • In Hungary
  • List of Countries
  • For 7 days
  • Water Temperature
  • Satellite Maps
  • Weather Map
  • News
  • Weather Widgets
  • user-avatar
    Login

    Hourly Weather Jinjiang

    Today, 20 February, Wednesday

    Time Temperature Precipitation Wind Pressure Humidity
    00:00 +21°C° 0 mm 2 mps 764 mmHg 78%
    01:00 +20°C° 0 mm 3 mps 764 mmHg 81%
    02:00 +20°C° 0 mm 3 mps 764 mmHg 84%
    03:00 +20°C° 0 mm 3 mps 764 mmHg 85%
    04:00 +20°C° 0 mm 3 mps 764 mmHg 86%
    05:00 +19°C° 0 mm 3 mps 764 mmHg 87%
    06:00 +20°C° 0.1 mm 3 mps 764 mmHg 87%
    07:00 +20°C° 0.1 mm 3 mps 765 mmHg 87%
    08:00 +20°C° 0.1 mm 3 mps 765 mmHg 88%
    09:00 +20°C° 0 mm 3 mps 765 mmHg 86%
    10:00 +20°C° 0 mm 3 mps 765 mmHg 85%
    11:00 +21°C° 0 mm 3 mps 765 mmHg 83%
    12:00 +22°C° 0 mm 3 mps 765 mmHg 80%
    13:00 +24°C° 0 mm 3 mps 764 mmHg 76%
    14:00 +24°C° 0 mm 3 mps 764 mmHg 73%
    15:00 +24°C° 0 mm 3 mps 764 mmHg 74%
    16:00 +24°C° 0 mm 3 mps 763 mmHg 74%
    17:00 +24°C° 0 mm 3 mps 763 mmHg 75%
    18:00 +24°C° 0.1 mm 3 mps 764 mmHg 78%
    19:00 +22°C° 0.1 mm 4 mps 764 mmHg 82%
    20:00 +21°C° 0.1 mm 4 mps 764 mmHg 86%
    21:00 +21°C° 0 mm 3 mps 764 mmHg 86%
    22:00 +21°C° 0 mm 3 mps 765 mmHg 87%
    23:00 +20°C° 0 mm 3 mps 765 mmHg 88%

    Tomorrow, 21 February, Thursday

    Time Temperature Precipitation Wind Pressure Humidity
    00:00 +20°C° 0 mm 3 mps 764 mmHg 88%
    01:00 +20°C° 0 mm 3 mps 764 mmHg 88%
    02:00 +20°C° 0 mm 3 mps 764 mmHg 88%
    03:00 +20°C° 0 mm 3 mps 764 mmHg 88%
    04:00 +20°C° 0 mm 3 mps 764 mmHg 89%
    05:00 +20°C° 0 mm 3 mps 763 mmHg 89%
    06:00 +20°C° 0 mm 3 mps 763 mmHg 88%
    07:00 +20°C° 0 mm 3 mps 764 mmHg 87%
    08:00 +20°C° 0 mm 3 mps 764 mmHg 87%
    09:00 +20°C° 0 mm 3 mps 764 mmHg 85%
    10:00 +21°C° 0 mm 3 mps 764 mmHg 83%
    11:00 +21°C° 0 mm 4 mps 764 mmHg 81%
    12:00 +22°C° 0 mm 4 mps 763 mmHg 78%
    13:00 +22°C° 0 mm 5 mps 762 mmHg 75%
    14:00 +23°C° 0 mm 5 mps 761 mmHg 72%
    15:00 +22°C° 0.1 mm 5 mps 761 mmHg 75%
    16:00 +21°C° 0.1 mm 5 mps 761 mmHg 78%
    17:00 +20°C° 0.1 mm 4 mps 760 mmHg 82%
    18:00 +20°C° 0 mm 4 mps 761 mmHg 83%
    19:00 +20°C° 0 mm 4 mps 761 mmHg 84%
    20:00 +19°C° 0 mm 4 mps 761 mmHg 85%
    21:00 +19°C° 0.2 mm 4 mps 761 mmHg 86%
    22:00 +19°C° 0.2 mm 3 mps 761 mmHg 87%
    23:00 +19°C° 0.2 mm 2 mps 761 mmHg 87%

    Day after tomorrow, 22 February, Friday

    Time Temperature Precipitation Wind Pressure Humidity
    00:00 +19°C° 0.8 mm 2 mps 761 mmHg 88%
    01:00 +19°C° 0.8 mm 2 mps 761 mmHg 89%
    02:00 +19°C° 0.8 mm 2 mps 760 mmHg 90%
    03:00 +19°C° 1 mm 2 mps 760 mmHg 90%
    04:00 +19°C° 1 mm 2 mps 760 mmHg 89%
    05:00 +19°C° 1 mm 2 mps 760 mmHg 89%
    06:00 +20°C° 0.5 mm 2 mps 761 mmHg 86%
    07:00 +21°C° 0.5 mm 1 mps 761 mmHg 83%
    08:00 +21°C° 0.5 mm 1 mps 762 mmHg 79%
    09:00 +22°C° 0 mm 1 mps 762 mmHg 70%
    10:00 +24°C° 0 mm 2 mps 762 mmHg 61%
    11:00 +25°C° 0 mm 2 mps 762 mmHg 52%
    12:00 +26°C° 0 mm 2 mps 762 mmHg 50%
    13:00 +27°C° 0 mm 3 mps 761 mmHg 48%
    14:00 +27°C° 0 mm 3 mps 760 mmHg 46%
    15:00 +26°C° 0 mm 3 mps 760 mmHg 50%
    16:00 +26°C° 0 mm 4 mps 760 mmHg 55%
    17:00 +25°C° 0 mm 4 mps 760 mmHg 59%
    18:00 +23°C° 0 mm 4 mps 761 mmHg 65%
    19:00 +21°C° 0 mm 5 mps 761 mmHg 71%
    20:00 +20°C° 0 mm 5 mps 762 mmHg 78%
    21:00 +20°C° 0 mm 5 mps 763 mmHg 79%
    22:00 +19°C° 0 mm 6 mps 763 mmHg 81%
    23:00 +17°C° 0 mm 6 mps 763 mmHg 82%

    23 February, Saturday

    Time Temperature Precipitation Wind Pressure Humidity
    00:00 +17°C° 0 mm 6 mps 763 mmHg 82%
    01:00 +17°C° 0 mm 6 mps 763 mmHg 81%
    02:00 +16°C° 0 mm 6 mps 763 mmHg 80%
    03:00 +16°C° 0 mm 5 mps 763 mmHg 80%
    04:00 +16°C° 0 mm 5 mps 763 mmHg 80%
    05:00 +16°C° 0 mm 5 mps 763 mmHg 80%
    06:00 +16°C° 0 mm 5 mps 764 mmHg 79%
    07:00 +16°C° 0 mm 6 mps 764 mmHg 78%
    08:00 +16°C° 0 mm 6 mps 765 mmHg 77%
    09:00 +16°C° 0 mm 6 mps 765 mmHg 74%
    10:00 +17°C° 0 mm 6 mps 765 mmHg 72%
    11:00 +17°C° 0 mm 7 mps 765 mmHg 69%
    12:00 +17°C° 0 mm 7 mps 764 mmHg 67%
    13:00 +18°C° 0 mm 7 mps 763 mmHg 65%
    14:00 +18°C° 0 mm 7 mps 763 mmHg 63%
    15:00 +17°C° 0 mm 7 mps 763 mmHg 64%
    16:00 +17°C° 0 mm 7 mps 763 mmHg 65%
    17:00 +17°C° 0 mm 8 mps 763 mmHg 66%
    18:00 +16°C° 0 mm 7 mps 763 mmHg 68%
    19:00 +15°C° 0 mm 7 mps 764 mmHg 71%
    20:00 +14°C° 0 mm 7 mps 764 mmHg 73%
    21:00 +14°C° 0 mm 7 mps 764 mmHg 73%
    22:00 +14°C° 0 mm 7 mps 765 mmHg 73%
    23:00 +14°C° 0 mm 7 mps 765 mmHg 73%

    24 February, Sunday

    Time Temperature Precipitation Wind Pressure Humidity
    00:00 +14°C° 0 mm 7 mps 765 mmHg 73%
    01:00 +13°C° 0 mm 6 mps 764 mmHg 73%
    02:00 +13°C° 0 mm 6 mps 764 mmHg 73%
    03:00 +13°C° 0 mm 6 mps 764 mmHg 72%
    04:00 +13°C° 0 mm 6 mps 764 mmHg 71%
    05:00 +13°C° 0 mm 6 mps 764 mmHg 71%
    06:00 +13°C° 0 mm 6 mps 764 mmHg 71%
    07:00 +13°C° 0 mm 6 mps 765 mmHg 71%
    08:00 +13°C° 0 mm 6 mps 765 mmHg 72%
    09:00 +15°C° 0 mm 6 mps 765 mmHg 67%
    10:00 +16°C° 0 mm 6 mps 765 mmHg 62%
    11:00 +17°C° 0 mm 6 mps 765 mmHg 57%
    12:00 +19°C° 0 mm 6 mps 764 mmHg 55%
    13:00 +20°C° 0 mm 6 mps 763 mmHg 52%
    14:00 +20°C° 0 mm 6 mps 763 mmHg 50%
    15:00 +20°C° 0 mm 6 mps 762 mmHg 52%
    16:00 +19°C° 0 mm 6 mps 762 mmHg 54%
    17:00 +18°C° 0 mm 7 mps 762 mmHg 56%
    18:00 +17°C° 0 mm 6 mps 762 mmHg 59%
    19:00 +16°C° 0 mm 5 mps 763 mmHg 62%
    20:00 +15°C° 0 mm 5 mps 763 mmHg 65%
    21:00 +15°C° 0 mm 4 mps 763 mmHg 65%
    22:00 +15°C° 0 mm 4 mps 763 mmHg 66%
    23:00 +14°C° 0 mm 4 mps 763 mmHg 67%

    25 February, Monday

    Time Temperature Precipitation Wind Pressure Humidity
    00:00 +14°C° 0 mm 3 mps 763 mmHg 68%
    01:00 +14°C° 0 mm 3 mps 763 mmHg 68%
    02:00 +14°C° 0 mm 3 mps 763 mmHg 69%
    03:00 +14°C° 0 mm 3 mps 763 mmHg 69%
    04:00 +14°C° 0 mm 3 mps 763 mmHg 69%
    05:00 +15°C° 0 mm 2 mps 763 mmHg 69%
    06:00 +15°C° 0 mm 2 mps 763 mmHg 68%
    07:00 +16°C° 0 mm 2 mps 763 mmHg 66%
    08:00 +16°C° 0 mm 2 mps 764 mmHg 64%
    09:00 +18°C° 0 mm 2 mps 764 mmHg 60%
    10:00 +20°C° 0 mm 2 mps 763 mmHg 56%
    11:00 +21°C° 0 mm 2 mps 763 mmHg 52%
    12:00 +23°C° 0 mm 2 mps 763 mmHg 51%
    13:00 +24°C° 0 mm 3 mps 762 mmHg 50%
    14:00 +25°C° 0 mm 3 mps 762 mmHg 48%
    15:00 +25°C° 0 mm 3 mps 762 mmHg 53%
    16:00 +24°C° 0 mm 3 mps 762 mmHg 57%
    17:00 +22°C° 0 mm 4 mps 762 mmHg 61%
    18:00 +21°C° 0 mm 3 mps 762 mmHg 67%
    19:00 +20°C° 0 mm 3 mps 762 mmHg 73%
    20:00 +19°C° 0 mm 3 mps 763 mmHg 79%
    21:00 +19°C° 0 mm 3 mps 763 mmHg 81%
    22:00 +19°C° 0 mm 3 mps 763 mmHg 82%
    23:00 +18°C° 0 mm 3 mps 764 mmHg 84%
    Show more